| time (UTC) | temp F | wind direction | speed MPH | gust MPH | rain 1hr in | rain 24hr in | rain mn in | humidity % | barometer mb |
| 20260831163044 | 87 | 138 | 5.0 | 9.0 | 0.00 | 0.00 | 0.00 | 25 | 1008.7 |
| 20260831161541 | 86 | 138 | 5.0 | 12.0 | 0.00 | 0.00 | 0.00 | 26 | 1008.8 |
| 20260831160037 | 85 | 74 | 6.0 | 12.0 | 0.00 | 0.00 | 0.00 | 26 | 1008.8 |
| 20260831154535 | 84 | 122 | 5.0 | 10.0 | 0.00 | 0.00 | 0.00 | 27 | 1008.9 |
| 20260831153031 | 84 | 95 | 4.0 | 9.0 | 0.00 | 0.00 | 0.00 | 28 | 1008.7 |
| 20260831151528 | 83 | 92 | 4.0 | 9.0 | 0.00 | 0.00 | 0.00 | 29 | 1008.6 |
| 20260831150026 | 82 | 92 | 5.0 | 9.0 | 0.00 | 0.00 | 0.00 | 30 | 1008.3 |
| 20260831144522 | 82 | 72 | 2.0 | 7.0 | 0.00 | 0.00 | 0.00 | 32 | 1008.2 |
| 20260831143021 | 81 | 119 | 0.0 | 3.0 | 0.00 | 0.00 | 0.00 | 32 | 1008.1 |
| 20260831141517 | 80 | 107 | 0.0 | 1.0 | 0.00 | 0.00 | 0.00 | 33 | 1007.9 |
| 20260831140031 | 77 | 107 | 0.0 | 0.0 | 0.00 | 0.00 | 0.00 | 34 | 1007.6 |
| 20260831134515 | 77 | 107 | 0.0 | 0.0 | 0.00 | 0.00 | 0.00 | 34 | 1007.3 |
| 20260831133013 | 75 | 107 | 0.0 | 0.0 | 0.00 | 0.00 | 0.00 | 35 | 1007.0 |
| 20260831131513 | 74 | 107 | 0.0 | 0.0 | 0.00 | 0.00 | 0.00 | 35 | 1007.1 |
| 20260831130013 | 74 | 107 | 0.0 | 0.0 | 0.00 | 0.00 | 0.00 | 35 | 1007.0 |
| 20260831124511 | 74 | 357 | 0.0 | 0.0 | 0.00 | 0.00 | 0.00 | 34 | 1006.8 |
| 20260831123009 | 74 | 357 | 0.0 | 0.0 | 0.00 | 0.00 | 0.00 | 34 | 1006.8 |
| 20260831121509 | 74 | 357 | 0.0 | 0.0 | 0.00 | 0.00 | 0.00 | 34 | 1006.7 |
| 20260831120014 | 73 | 357 | 0.0 | 0.0 | 0.00 | 0.00 | 0.00 | 34 | 1006.6 |
| 20260831114507 | 73 | 357 | 0.0 | 2.0 | 0.00 | 0.00 | 0.00 | 33 | 1006.5 |
| 20260831113005 | 74 | 6 | 0.0 | 2.0 | 0.00 | 0.00 | 0.00 | 35 | 1006.5 |
| 20260831111503 | 75 | 115 | 0.0 | 0.0 | 0.00 | 0.00 | 0.00 | 37 | 1006.4 |
| 20260831110005 | 74 | 108 | 0.0 | 0.0 | 0.00 | 0.00 | 0.00 | 38 | 1006.3 |
| 20260831104605 | 75 | 285 | 0.0 | 0.0 | 0.00 | 0.00 | 0.00 | 37 | 1006.1 |
| 20260831103058 | 75 | 285 | 0.0 | 0.0 | 0.00 | 0.00 | 0.00 | 35 | 1006.1 |
| 20260831101602 | 76 | 285 | 0.0 | 0.0 | 0.00 | 0.00 | 0.00 | 33 | 1006.0 |
| 20260831094553 | 76 | 302 | 0.0 | 2.0 | 0.00 | 0.00 | 0.00 | 30 | 1006.0 |
| 20260831093055 | 77 | 283 | 0.0 | 0.0 | 0.00 | 0.00 | 0.00 | 29 | 1006.1 |
| 20260831091548 | 78 | 289 | 1.0 | 4.0 | 0.00 | 0.00 | 0.00 | 28 | 1005.8 |
| 20260831090057 | 78 | 297 | 0.0 | 2.0 | 0.00 | 0.00 | 0.00 | 28 | 1005.7 |
| 20260831084556 | 78 | 302 | 3.0 | 5.0 | 0.00 | 0.00 | 0.00 | 28 | 1005.7 |
| 20260831083048 | 78 | 309 | 0.0 | 4.0 | 0.00 | 0.00 | 0.00 | 28 | 1005.7 |
| 20260831081546 | 78 | 297 | 0.0 | 3.0 | 0.00 | 0.00 | 0.00 | 28 | 1005.8 |
| 20260831080045 | 77 | 300 | 1.0 | 4.0 | 0.00 | 0.00 | 0.00 | 29 | 1005.7 |
| 20260831074543 | 77 | 301 | 1.0 | 6.0 | 0.00 | 0.00 | 0.00 | 27 | 1005.8 |
| 20260831073039 | 78 | 337 | 2.0 | 4.0 | 0.00 | 0.00 | 0.00 | 26 | 1005.8 |
| 20260831071536 | 80 | 4 | 0.0 | 2.0 | 0.00 | 0.00 | 0.00 | 27 | 1005.8 |
| 20260831070043 | 80 | 295 | 0.0 | 0.0 | 0.00 | 0.00 | 0.00 | 27 | 1005.6 |
| 20260831064532 | 81 | 295 | 1.0 | 2.0 | 0.00 | 0.00 | 0.00 | 26 | 1005.6 |
| 20260831063032 | 81 | 286 | 0.0 | 3.0 | 0.00 | 0.00 | 0.00 | 25 | 1005.7 |
| 20260831061531 | 81 | 295 | 0.0 | 3.0 | 0.00 | 0.00 | 0.00 | 23 | 1005.3 |
| 20260831060031 | 81 | 299 | 0.0 | 4.0 | 0.00 | 0.00 | 0.00 | 24 | 1005.3 |
| 20260831054530 | 81 | 304 | 0.0 | 4.0 | 0.00 | 0.00 | 0.00 | 25 | 1005.4 |
| 20260831053027 | 81 | 322 | 2.0 | 5.0 | 0.00 | 0.00 | 0.00 | 24 | 1005.5 |
| 20260831051534 | 82 | 326 | 1.0 | 3.0 | 0.00 | 0.00 | 0.00 | 22 | 1005.5 |
| 20260831050023 | 83 | 338 | 0.0 | 5.0 | 0.00 | 0.00 | 0.00 | 22 | 1005.5 |
| 20260831044522 | 84 | 321 | 1.0 | 4.0 | 0.00 | 0.00 | 0.00 | 22 | 1005.4 |
| 20260831043017 | 85 | 4 | 0.0 | 0.0 | 0.00 | 0.00 | 0.00 | 20 | 1005.5 |
| 20260831041517 | 86 | 4 | 0.0 | 0.0 | 0.00 | 0.00 | 0.00 | 19 | 1005.4 |
| 20260831040017 | 89 | 328 | 0.0 | 2.0 | 0.00 | 0.00 | 0.00 | 19 | 1005.2 |
| 20260831034516 | 90 | 198 | 0.0 | 8.0 | 0.00 | 0.00 | 0.00 | 18 | 1004.9 |
| 20260831033029 | 89 | 199 | 2.0 | 5.0 | 0.00 | 0.00 | 0.00 | 18 | 1004.6 |
| 20260831031516 | 89 | 232 | 0.0 | 0.0 | 0.00 | 0.00 | 0.00 | 17 | 1004.5 |
| 20260831030014 | 89 | 232 | 0.0 | 0.0 | 0.00 | 0.00 | 0.00 | 16 | 1004.4 |
| 20260831024514 | 90 | 231 | 0.0 | 4.0 | 0.00 | 0.00 | 0.00 | 16 | 1004.1 |
| 20260831023013 | 90 | 243 | 0.0 | 1.0 | 0.00 | 0.00 | 0.00 | 17 | 1004.0 |
| 20260831021514 | 91 | 226 | 0.0 | 4.0 | 0.00 | 0.00 | 0.00 | 16 | 1003.9 |
| 20260831020015 | 92 | 202 | 0.0 | 6.0 | 0.00 | 0.00 | 0.00 | 16 | 1003.9 |
| 20260831014513 | 93 | 197 | 3.0 | 9.0 | 0.00 | 0.00 | 0.00 | 16 | 1003.7 |
| 20260831013010 | 93 | 171 | 2.0 | 6.0 | 0.00 | 0.00 | 0.00 | 16 | 1003.9 |
| 20260831011510 | 94 | 176 | 1.0 | 8.0 | 0.00 | 0.00 | 0.00 | 15 | 1004.0 |
| 20260831010010 | 94 | 167 | 3.0 | 8.0 | 0.00 | 0.00 | 0.00 | 15 | 1004.1 |
| 20260831004509 | 93 | 154 | 3.0 | 10.0 | 0.00 | 0.00 | 0.00 | 16 | 1004.1 |
| 20260831003009 | 93 | 210 | 3.0 | 12.0 | 0.00 | 0.00 | 0.00 | 17 | 1004.2 |
| 20260831001512 | 93 | 255 | 4.0 | 10.0 | 0.00 | 0.00 | 0.00 | 16 | 1004.1 |
| 20260831000007 | 93 | 160 | 2.0 | 9.0 | 0.00 | 0.00 | 0.00 | 17 | 1004.2 |
| 20260830234518 | 93 | 208 | 2.0 | 9.0 | 0.00 | 0.00 | 0.00 | 17 | 1004.6 |
| 20260830233006 | 93 | 238 | 5.0 | 10.0 | 0.00 | 0.00 | 0.00 | 16 | 1004.8 |
| 20260830231507 | 94 | 217 | 4.0 | 12.0 | 0.00 | 0.00 | 0.00 | 16 | 1004.7 |
| 20260830230004 | 93 | 240 | 5.0 | 12.0 | 0.00 | 0.00 | 0.00 | 16 | 1004.8 |
| 20260830224504 | 93 | 202 | 2.0 | 16.0 | 0.00 | 0.00 | 0.00 | 17 | 1004.9 |
| 20260830223003 | 93 | 231 | 5.0 | 9.0 | 0.00 | 0.00 | 0.00 | 17 | 1005.2 |
| 20260830221503 | 93 | 169 | 7.0 | 14.0 | 0.00 | 0.00 | 0.00 | 17 | 1005.3 |
| 20260830220002 | 93 | 230 | 3.0 | 9.0 | 0.00 | 0.00 | 0.00 | 17 | 1005.2 |
| 20260830214500 | 93 | 256 | 2.0 | 9.0 | 0.00 | 0.00 | 0.00 | 17 | 1005.4 |
| 20260830213100 | 93 | 143 | 7.0 | 16.0 | 0.00 | 0.00 | 0.00 | 16 | 1005.7 |
| 20260830213003 | 93 | 225 | 7.0 | 16.0 | 0.00 | 0.00 | 0.00 | 16 | 1005.7 |
| 20260830211622 | 93 | 132 | 4.0 | 12.0 | 0.00 | 0.00 | 0.00 | 16 | 1005.9 |
| 20260830204559 | 94 | 237 | 5.0 | 10.0 | 0.00 | 0.00 | 0.00 | 15 | 1006.0 |
| 20260830203058 | 94 | 236 | 2.0 | 11.0 | 0.00 | 0.00 | 0.00 | 16 | 1006.0 |
| 20260830201604 | 94 | 136 | 6.0 | 17.0 | 0.00 | 0.00 | 0.00 | 16 | 1006.0 |
| 20260830200058 | 95 | 155 | 7.0 | 16.0 | 0.00 | 0.00 | 0.00 | 16 | 1006.0 |
| 20260830194602 | 96 | 117 | 5.0 | 15.0 | 0.00 | 0.00 | 0.00 | 16 | 1006.0 |
| 20260830193055 | 96 | 134 | 7.0 | 17.0 | 0.00 | 0.00 | 0.00 | 16 | 1006.2 |
| 20260830191600 | 95 | 187 | 9.0 | 16.0 | 0.00 | 0.00 | 0.00 | 16 | 1006.3 |
| 20260830184559 | 96 | 179 | 10.0 | 22.0 | 0.00 | 0.00 | 0.00 | 16 | 1006.2 |
| 20260830183053 | 95 | 111 | 7.0 | 14.0 | 0.00 | 0.00 | 0.00 | 16 | 1006.4 |
| 20260830181553 | 96 | 181 | 7.0 | 16.0 | 0.00 | 0.00 | 0.00 | 15 | 1006.4 |
| 20260830180055 | 96 | 115 | 4.0 | 16.0 | 0.00 | 0.00 | 0.00 | 15 | 1006.4 |
| 20260830174557 | 96 | 172 | 7.0 | 17.0 | 0.00 | 0.00 | 0.00 | 15 | 1006.5 |
| 20260830173109 | 95 | 125 | 9.0 | 19.0 | 0.00 | 0.00 | 0.00 | 15 | 1006.2 |
| 20260830171553 | 95 | 143 | 5.0 | 16.0 | 0.00 | 0.00 | 0.00 | 16 | 1006.2 |
| 20260830170046 | 93 | 98 | 6.0 | 14.0 | 0.00 | 0.00 | 0.00 | 16 | 1006.2 |
| 20260830164542 | 92 | 150 | 6.0 | 12.0 | 0.00 | 0.00 | 0.00 | 17 | 1006.3 |